[[[{"header":{"parameterUnit":"kt","parameterCategory":2,"dx":1,"dy":1,"la1":30.253999710083008,"la2":30.299108505249023,"lo1":-89.0895004272461,"lo2":-89.04439544677734,"nx":28,"ny":28,"refTime":"2022-10-01T21:00:00:Z","depth":0,"parameterNumber":1,"parameterNumberName":"U-component_of_WINDS"},"data":[0.6722,0.6601,0.6581,0.6432,0.639,0.6283,0.6239,0.6179,0.6126,0.5996,0.5917,0.5883,0.582,0.572,0.5632,0.5618,0.5579,0.5552,0.5539,0.5686,0.5705,0.5722,0.5749,0.5546,0.5545,0.5388,0.5387,0.5385,0.6833,0.679,0.6706,0.6611,0.6538,0.6554,0.6479,0.6416,0.632,0.6254,0.6176,0.6059,0.5963,0.5908,0.5811,0.5751,0.575,0.5726,0.5726,0.5715,0.5873,0.5902,0.5728,0.5728,0.5728,0.5728,0.5728,0.5728,0.7028,0.6956,0.6887,0.6795,0.6742,0.6678,0.6605,0.6566,0.6482,0.638,0.6372,0.6262,0.619,0.6063,0.6014,0.5926,0.5948,0.5914,0.5903,0.5894,0.5885,0.6109,0.591,0.591,0.591,0.5911,0.5911,0,0.7163,0.7151,0.7069,0.6981,0.6913,0.6843,0.6774,0.6728,0.6694,0.6626,0.6525,0.6463,0.6339,0.6239,0.6144,0.61,0.6102,0.6102,0.6077,0.6076,0.6088,0.6075,0.6329,0.6106,0.6108,0.6109,0.611,0.6111,0.7353,0.7273,0.7191,0.7136,0.7093,0.7005,0.6947,0.6924,0.6863,0.6774,0.671,0.6612,0.653,0.637,0.632,0.6227,0.6226,0.6143,0.6211,0.6216,0.6218,0.6221,0.6211,0.6127,0.6125,0.6124,0.6122,0,0.7462,0.7429,0.7297,0.7223,0.7202,0.7118,0.7053,0.698,0.6949,0.6842,0.6816,0.6765,0.6665,0.6629,0.6506,0.649,0.6345,0.6351,0.637,0.6367,0.6285,0.6291,0.6035,0.5998,0.6215,0.6213,0.6211,0,0.7608,0.7503,0.746,0.7385,0.7268,0.7246,0.7129,0.709,0.7028,0.6944,0.6946,0.6866,0.6832,0.6747,0.6723,0.6599,0.6577,0.6555,0.6548,0.6551,0.6553,0.6512,0.6519,0.6544,0.6545,0.6546,0.6547,0,0.7776,0.7632,0.7511,0.7472,0.7381,0.7324,0.7283,0.7213,0.7156,0.7077,0.7039,0.6948,0.6896,0.6825,0.6793,0.6841,0.6643,0.6701,0.6619,0.662,0.6572,0.6574,0.6362,0.6549,0.6549,0.655,0.655,0,0.7887,0.781,0.7642,0.7565,0.7527,0.7448,0.7357,0.7281,0.7206,0.7186,0.7123,0.7117,0.7009,0.7069,0.6919,0.6989,0.6938,0.6908,0.6901,0.6883,0.695,0.6828,0.6635,0.661,0.6875,0.6878,0.688,0,0.8086,0.7908,0.7887,0.7727,0.7639,0.7645,0.7556,0.7491,0.7456,0.7375,0.7336,0.7242,0.728,0.7245,0.7176,0.713,0.704,0.7143,0.7017,0.7013,0.7032,0.6856,0.6833,0.6683,0.6915,0.6911,0.6909,0,0.8236,0.8127,0.81,0.8053,0.7964,0.789,0.7789,0.7692,0.7639,0.7566,0.7477,0.7348,0.7369,0.7311,0.7295,0.7225,0.7101,0.7256,0.7254,0.7225,0.693,0.6909,0.6884,0.7105,0.7101,0.7098,0.6936,0,0.8402,0.8309,0.8236,0.8134,0.8073,0.7971,0.7933,0.7872,0.7864,0.7829,0.77,0.7635,0.7533,0.7497,0.7487,0.734,0.7357,0.7381,0.7431,0.7318,0.7263,0.7241,0.7516,0.7518,0.7519,0.752,0,0,0.8597,0.8463,0.8443,0.8344,0.8289,0.8295,0.8189,0.8137,0.8029,0.799,0.802,0.7825,0.7769,0.7615,0.7577,0.7537,0.7505,0.7546,0.7373,0.7357,0.7342,0.7284,0.7262,0.7522,0.7522,0.7522,0.7523,0,0.8649,0.8599,0.8496,0.8442,0.836,0.8329,0.8304,0.8223,0.8195,0.807,0.8072,0.7989,0.7834,0.7773,0.7722,0.7566,0.7569,0.7539,0.7466,0.7386,0.7368,0.7353,0.7292,0.7272,0.7525,0.7525,0.7525,0,0.8785,0.8727,0.8674,0.8554,0.8499,0.8408,0.8454,0.8356,0.8288,0.8294,0.8168,0.8125,0.8042,0.7903,0.7839,0.7863,0.7629,0.7697,0.7689,0.7678,0.7598,0.7577,0.7559,0.7803,0.7804,0.7805,0,0,0.8834,0.8748,0.8676,0.8562,0.8528,0.8479,0.8427,0.8412,0.8339,0.8309,0.8254,0.8181,0.809,0.803,0.7942,0.7797,0.7774,0.7733,0.7719,0.7709,0.7693,0.761,0.7589,0.7809,0.7809,0.781,0,0,0.8856,0.8769,0.8774,0.8637,0.8569,0.8487,0.8417,0.8421,0.8338,0.8345,0.8313,0.8292,0.8162,0.8119,0.8182,0.7958,0.801,0.7994,0.799,0.7973,0.796,0.797,0.8214,0,0,0,0,0,0.8888,0.8781,0.8786,0.8758,0.8603,0.8486,0.8465,0.8438,0.8475,0.842,0.8375,0.8383,0.8146,0.8201,0.8171,0.8099,0.7865,0.7855,0.7846,0.7806,0.7789,0.7774,0,0,0,0,0,0,0.8876,0.8842,0.8789,0.8704,0.8669,0.8489,0.8546,0.8535,0.848,0.8484,0.8392,0.838,0.8352,0.8214,0.8188,0.812,0.8223,0.7861,0.7852,0.7845,0.78,0.7786,0.7774,0,0,0,0,0,0.8867,0.8839,0.8599,0.8705,0.8675,0.8613,0.855,0.8541,0.8498,0.8426,0.8414,0.8482,0.8351,0.8327,0.8198,0.8133,0.8241,0.8231,0.7855,0.7849,0.7843,0.7793,0,0,0,0,0,0,0.886,0.8829,0.8592,0.8581,0.8744,0.8623,0.8603,0.8546,0.8443,0.843,0.8516,0.852,0.8349,0.8331,0.8312,0.8139,0.8256,0.8246,0.824,0.785,0.7845,0.7841,0,0,0,0,0,0,0.8844,0.8821,0.8586,0.8637,0.8632,0.8632,0.8614,0.85,0.8441,0.8538,0.8538,0.8518,0.8376,0.8333,0.8318,0.8142,0.8267,0.8258,0.8251,0.8247,0.7846,0.7842,0,0,0,0,0,0,0.8834,0.8813,0.8639,0.8635,0.8631,0.8512,0.853,0.8372,0.8488,0.8542,0.8497,0.8501,0.8378,0.8363,0.8323,0.8152,0.8144,0.8267,0.826,0.8256,0.8253,0,0,0,0,0,0,0,0.8825,0.897,0.8654,0.8634,0.8631,0.8485,0.8482,0.8479,0.8489,0.8492,0.8496,0.8499,0.8321,0.8311,0.83,0.8161,0,0,0.8268,0.8263,0,0,0,0,0,0,0,0,0.8977,0.8971,0.8654,0.8651,0.8649,0.8485,0.8482,0.848,0.8489,0.8492,0.8495,0.8498,0.8318,0.831,0.8301,0,0,0,0,0,0,0,0,0,0,0,0,0,0,0,0.8653,0.8652,0,0.8484,0.8482,0.8481,0.849,0.8492,0.8495,0.8497,0.8316,0.8309,0.8302,0,0,0,0,0,0,0,0,0,0,0,0,0,0,0,0,0,0,0,0,0,0,0,0,0,0,0,0,0,0,0,0,0,0,0,0,0,0,0,0,0,0,0,0,0,0,0,0,0,0,0,0,0,0,0,0,0,0,0,0,0,0,0,0,0,0,0,0,0]}],[{"header":{"parameterUnit":"kt","parameterCategory":2,"dx":1,"dy":1,"la1":30.253999710083008,"la2":30.299108505249023,"lo1":-89.0895004272461,"lo2":-89.04439544677734,"nx":28,"ny":28,"refTime":"2022-10-01T21:00:00:Z","depth":0,"parameterNumber":2,"parameterNumberName":"V-component_of_WINDS"},"data":[-8.5715,-8.5965,-8.6012,-8.6318,-8.6412,-8.6629,-8.6721,-8.6845,-8.6955,-8.7217,-8.7375,-8.7446,-8.7572,-8.7771,-8.7944,-8.7971,-8.804,-8.8095,-8.8117,-8.7834,-8.7798,-8.7763,-8.7707,-8.8109,-8.811,-8.8404,-8.8407,-8.8409,-8.5501,-8.5597,-8.5773,-8.5976,-8.6127,-8.6103,-8.6261,-8.6388,-8.6582,-8.6719,-8.6878,-8.7112,-8.7301,-8.7412,-8.7601,-8.7717,-8.7715,-8.7765,-8.7756,-8.7776,-8.7475,-8.7416,-8.7763,-8.7763,-8.7762,-8.7762,-8.7762,-8.7762,-8.5125,-8.5273,-8.5423,-8.5615,-8.573,-8.5865,-8.6013,-8.6098,-8.627,-8.6476,-8.6497,-8.6717,-8.6861,-8.7112,-8.7207,-8.7378,-8.7331,-8.7399,-8.7416,-8.7432,-8.7444,-8.7013,-8.7412,-8.7411,-8.7411,-8.741,-8.7409,0,-8.4864,-8.4893,-8.5066,-8.5253,-8.5395,-8.5544,-8.5688,-8.5781,-8.5857,-8.5995,-8.6199,-8.6324,-8.657,-8.6766,-8.6954,-8.7039,-8.7026,-8.703,-8.7077,-8.707,-8.704,-8.7058,-8.6565,-8.7018,-8.7015,-8.7013,-8.7011,-8.701,-8.4487,-8.4655,-8.4835,-8.495,-8.504,-8.5224,-8.5343,-8.5398,-8.5522,-8.5706,-8.5833,-8.603,-8.6191,-8.6508,-8.6603,-8.6787,-8.6782,-8.695,-8.6809,-8.6795,-8.6784,-8.6774,-8.679,-8.6976,-8.698,-8.6984,-8.6987,0,-8.427,-8.4347,-8.4622,-8.4783,-8.4829,-8.5001,-8.5138,-8.5288,-8.5354,-8.5569,-8.5622,-8.5725,-8.5923,-8.5992,-8.6232,-8.6261,-8.6543,-8.6534,-8.6493,-8.6495,-8.6652,-8.6636,-8.7152,-8.7222,-8.6806,-8.681,-8.6813,0,-8.3979,-8.4197,-8.4298,-8.4454,-8.4697,-8.4747,-8.4986,-8.5067,-8.5194,-8.5363,-8.5361,-8.552,-8.5583,-8.5751,-8.5795,-8.6038,-8.6083,-8.6119,-8.6128,-8.612,-8.6116,-8.6185,-8.6165,-8.6143,-8.614,-8.6138,-8.6136,0,-8.3632,-8.3942,-8.4195,-8.4277,-8.4471,-8.4589,-8.4674,-8.4817,-8.4933,-8.5093,-8.5169,-8.5352,-8.5453,-8.5594,-8.5649,-8.5551,-8.5947,-8.5823,-8.5984,-8.5983,-8.6068,-8.6062,-8.6502,-8.6132,-8.6131,-8.6131,-8.613,0,-8.3408,-8.3572,-8.3928,-8.4089,-8.4168,-8.4334,-8.4519,-8.4678,-8.4828,-8.4867,-8.4994,-8.5,-8.5219,-8.5091,-8.5392,-8.5249,-8.5347,-8.5402,-8.5415,-8.5439,-8.5294,-8.5532,-8.5944,-8.5989,-8.546,-8.5454,-8.5449,0,-8.2989,-8.3369,-8.3415,-8.3752,-8.3936,-8.3922,-8.4108,-8.4241,-8.4309,-8.4474,-8.4547,-8.4735,-8.4655,-8.4723,-8.4863,-8.4946,-8.5132,-8.4923,-8.5158,-8.5166,-8.5119,-8.5499,-8.5543,-8.5846,-8.5379,-8.5386,-8.5392,0,-8.2674,-8.2909,-8.2966,-8.3062,-8.3248,-8.3403,-8.3616,-8.3814,-8.3922,-8.4072,-8.4251,-8.4517,-8.4467,-8.4579,-8.4604,-8.4746,-8.5008,-8.4673,-8.4677,-8.473,-8.5349,-8.539,-8.5441,-8.4992,-8.5001,-8.5008,-8.5336,0,-8.2317,-8.2518,-8.2675,-8.2888,-8.3018,-8.3233,-8.3309,-8.3435,-8.3446,-8.3513,-8.3777,-8.3905,-8.4105,-8.4181,-8.4193,-8.4497,-8.4456,-8.4401,-8.4281,-8.453,-8.464,-8.4685,-8.4112,-8.4108,-8.4106,-8.4104,0,0,-8.1897,-8.2186,-8.223,-8.244,-8.2552,-8.2535,-8.2757,-8.2865,-8.3082,-8.316,-8.3094,-8.3487,-8.3593,-8.3907,-8.399,-8.4071,-8.4132,-8.4042,-8.4411,-8.4445,-8.4477,-8.4593,-8.4639,-8.4099,-8.4098,-8.4097,-8.4096,0,-8.1783,-8.1895,-8.2115,-8.2229,-8.2399,-8.2459,-8.2512,-8.2677,-8.273,-8.299,-8.297,-8.3138,-8.3451,-8.3566,-8.3665,-8.4007,-8.3982,-8.4062,-8.4221,-8.4382,-8.442,-8.4453,-8.4575,-8.4618,-8.409,-8.409,-8.4091,0,-8.1486,-8.1608,-8.1723,-8.1979,-8.209,-8.2281,-8.2174,-8.238,-8.2522,-8.249,-8.2749,-8.283,-8.299,-8.3277,-8.3408,-8.3352,-8.384,-8.3699,-8.3718,-8.3734,-8.3894,-8.3939,-8.3979,-8.3452,-8.3449,-8.3447,0,0,-8.1376,-8.1563,-8.1711,-8.196,-8.2032,-8.2125,-8.2233,-8.2256,-8.2401,-8.246,-8.2563,-8.2704,-8.2886,-8.3005,-8.318,-8.3484,-8.3521,-8.3618,-8.3648,-8.3672,-8.3701,-8.3868,-8.3912,-8.3438,-8.3437,-8.3437,0,0,-8.1324,-8.1505,-8.1491,-8.1791,-8.1931,-8.2092,-8.2241,-8.2227,-8.2392,-8.2376,-8.2422,-8.2462,-8.2731,-8.2811,-8.2675,-8.3138,-8.3019,-8.3053,-8.3076,-8.3116,-8.3145,-8.312,-8.2583,0,0,0,0,0,-8.1246,-8.1483,-8.1468,-8.1529,-8.1854,-8.21,-8.2142,-8.2186,-8.21,-8.2218,-8.2302,-8.2268,-8.2747,-8.2628,-8.2687,-8.2838,-8.3315,-8.3336,-8.3357,-8.346,-8.35,-8.3533,0,0,0,0,0,0,-8.127,-8.1345,-8.1462,-8.1632,-8.1705,-8.2092,-8.1957,-8.1975,-8.2089,-8.2079,-8.2253,-8.2274,-8.2315,-8.26,-8.2653,-8.2796,-8.2565,-8.3323,-8.3342,-8.3358,-8.3473,-8.3506,-8.3534,0,0,0,0,0,-8.129,-8.135,-8.1859,-8.1629,-8.1693,-8.1809,-8.1948,-8.1963,-8.2051,-8.2182,-8.2201,-8.2075,-8.2318,-8.2365,-8.2632,-8.2771,-8.2528,-8.2548,-8.3335,-8.335,-8.3363,-8.3489,0,0,0,0,0,0,-8.1305,-8.1365,-8.1873,-8.1894,-8.1543,-8.1788,-8.1828,-8.1952,-8.2148,-8.217,-8.2005,-8.1994,-8.2323,-8.2359,-8.2396,-8.276,-8.2499,-8.2519,-8.2531,-8.3346,-8.3358,-8.3368,0,0,0,0,0,0,-8.1333,-8.1383,-8.1884,-8.1773,-8.1781,-8.1769,-8.1804,-8.2036,-8.215,-8.1959,-8.1957,-8.1998,-8.2267,-8.2356,-8.2384,-8.2745,-8.2476,-8.2495,-8.2508,-8.2517,-8.3356,-8.3365,0,0,0,0,0,0,-8.1355,-8.1398,-8.1767,-8.1774,-8.1781,-8.202,-8.1974,-8.2303,-8.2057,-8.1951,-8.2035,-8.2026,-8.2265,-8.2294,-8.2376,-8.2725,-8.274,-8.2477,-8.249,-8.2499,-8.2505,0,0,0,0,0,0,0,-8.1372,-8.1073,-8.1749,-8.1775,-8.1781,-8.2088,-8.2094,-8.2099,-8.2054,-8.2046,-8.2038,-8.203,-8.2367,-8.2388,-8.2409,-8.2709,0,0,-8.2475,-8.2484,0,0,0,0,0,0,0,0,-8.1056,-8.1069,-8.1749,-8.1754,-8.1758,-8.2089,-8.2093,-8.2098,-8.2053,-8.2046,-8.2039,-8.2033,-8.2373,-8.239,-8.2407,0,0,0,0,0,0,0,0,0,0,0,0,0,0,0,-8.175,-8.1753,0,-8.2089,-8.2093,-8.2097,-8.2052,-8.2046,-8.2041,-8.2036,-8.2378,-8.2391,-8.2406,0,0,0,0,0,0,0,0,0,0,0,0,0,0,0,0,0,0,0,0,0,0,0,0,0,0,0,0,0,0,0,0,0,0,0,0,0,0,0,0,0,0,0,0,0,0,0,0,0,0,0,0,0,0,0,0,0,0,0,0,0,0,0,0,0,0,0,0,0]}]]]